• In Hungary
  • List of Countries
  • For 7 days
  • Water Temperature
  • Satellite Maps
  • Weather Map
  • News
  • Weather Widgets
  • user-avatar
    Login

    Hourly Weather Veselyy Pervyy

    Today, 17 August, Friday

    Time Temperature Precipitation Wind Pressure Humidity
    00:00 +23°C° 0 mm 2 mps 751 mmHg 39%
    01:00 +23°C° 0 mm 2 mps 750 mmHg 38%
    02:00 +21°C° 0 mm 2 mps 750 mmHg 39%
    03:00 +21°C° 0 mm 2 mps 750 mmHg 39%
    04:00 +20°C° 0 mm 2 mps 750 mmHg 39%
    05:00 +21°C° 0 mm 3 mps 750 mmHg 38%
    06:00 +22°C° 0 mm 3 mps 750 mmHg 38%
    07:00 +24°C° 0 mm 3 mps 750 mmHg 37%
    08:00 +26°C° 0 mm 4 mps 750 mmHg 33%
    09:00 +28°C° 0 mm 4 mps 750 mmHg 28%
    10:00 +30°C° 0 mm 5 mps 750 mmHg 24%
    11:00 +32°C° 0 mm 4 mps 750 mmHg 24%
    12:00 +33°C° 0 mm 4 mps 749 mmHg 23%
    13:00 +34°C° 0 mm 4 mps 749 mmHg 22%
    14:00 +34°C° 0 mm 4 mps 749 mmHg 23%
    15:00 +34°C° 0 mm 4 mps 748 mmHg 24%
    16:00 +34°C° 0 mm 4 mps 748 mmHg 25%
    17:00 +31°C° 0 mm 3 mps 748 mmHg 31%
    18:00 +30°C° 0 mm 3 mps 748 mmHg 37%
    19:00 +29°C° 0 mm 3 mps 748 mmHg 43%
    20:00 +27°C° 0.2 mm 4 mps 748 mmHg 53%
    21:00 +25°C° 0.2 mm 5 mps 748 mmHg 62%
    22:00 +22°C° 0.2 mm 6 mps 748 mmHg 71%
    23:00 +21°C° 0.1 mm 6 mps 748 mmHg 73%

    Tomorrow, 18 August, Saturday

    Time Temperature Precipitation Wind Pressure Humidity
    00:00 +20°C° 0.1 mm 5 mps 748 mmHg 75%
    01:00 +19°C° 0.1 mm 5 mps 747 mmHg 77%
    02:00 +19°C° 0.3 mm 5 mps 747 mmHg 78%
    03:00 +17°C° 0.3 mm 5 mps 747 mmHg 78%
    04:00 +16°C° 0.3 mm 5 mps 747 mmHg 79%
    05:00 +16°C° 0.3 mm 6 mps 747 mmHg 79%
    06:00 +16°C° 0.3 mm 6 mps 747 mmHg 80%
    07:00 +16°C° 0.3 mm 6 mps 747 mmHg 80%
    08:00 +17°C° 0.4 mm 6 mps 747 mmHg 78%
    09:00 +17°C° 0.4 mm 6 mps 747 mmHg 76%
    10:00 +19°C° 0.4 mm 6 mps 747 mmHg 73%
    11:00 +20°C° 0.2 mm 6 mps 747 mmHg 70%
    12:00 +20°C° 0.2 mm 6 mps 747 mmHg 66%
    13:00 +21°C° 0.2 mm 6 mps 747 mmHg 62%
    14:00 +21°C° 0.1 mm 6 mps 747 mmHg 61%
    15:00 +21°C° 0.1 mm 6 mps 747 mmHg 60%
    16:00 +22°C° 0.1 mm 6 mps 747 mmHg 59%
    17:00 +21°C° 0.1 mm 6 mps 747 mmHg 62%
    18:00 +20°C° 0.1 mm 6 mps 747 mmHg 65%
    19:00 +20°C° 0.1 mm 6 mps 747 mmHg 67%
    20:00 +19°C° 0.1 mm 5 mps 747 mmHg 70%
    21:00 +17°C° 0.1 mm 5 mps 747 mmHg 73%
    22:00 +16°C° 0.1 mm 5 mps 748 mmHg 76%
    23:00 +15°C° 0 mm 5 mps 747 mmHg 76%

    Day after tomorrow, 19 August, Sunday

    Time Temperature Precipitation Wind Pressure Humidity
    00:00 +15°C° 0 mm 5 mps 747 mmHg 76%
    01:00 +14°C° 0 mm 5 mps 747 mmHg 76%
    02:00 +14°C° 0 mm 5 mps 747 mmHg 75%
    03:00 +14°C° 0 mm 6 mps 747 mmHg 74%
    04:00 +14°C° 0 mm 6 mps 747 mmHg 74%
    05:00 +14°C° 0 mm 6 mps 748 mmHg 72%
    06:00 +14°C° 0 mm 7 mps 748 mmHg 70%
    07:00 +15°C° 0 mm 7 mps 748 mmHg 68%
    08:00 +15°C° 0 mm 7 mps 748 mmHg 66%
    09:00 +16°C° 0 mm 8 mps 748 mmHg 63%
    10:00 +17°C° 0 mm 8 mps 749 mmHg 61%
    11:00 +17°C° 0 mm 8 mps 749 mmHg 55%
    12:00 +18°C° 0 mm 8 mps 749 mmHg 50%
    13:00 +20°C° 0 mm 8 mps 749 mmHg 45%
    14:00 +20°C° 0 mm 8 mps 749 mmHg 43%
    15:00 +21°C° 0 mm 8 mps 749 mmHg 41%
    16:00 +22°C° 0 mm 7 mps 749 mmHg 39%
    17:00 +21°C° 0 mm 6 mps 749 mmHg 42%
    18:00 +20°C° 0 mm 6 mps 749 mmHg 45%
    19:00 +19°C° 0 mm 5 mps 749 mmHg 49%
    20:00 +18°C° 0 mm 4 mps 749 mmHg 53%
    21:00 +17°C° 0 mm 4 mps 749 mmHg 57%
    22:00 +16°C° 0 mm 3 mps 749 mmHg 62%
    23:00 +16°C° 0 mm 3 mps 749 mmHg 64%

    20 August, Monday

    Time Temperature Precipitation Wind Pressure Humidity
    00:00 +14°C° 0 mm 3 mps 749 mmHg 66%
    01:00 +13°C° 0 mm 3 mps 749 mmHg 69%
    02:00 +13°C° 0 mm 3 mps 749 mmHg 70%
    03:00 +13°C° 0 mm 3 mps 749 mmHg 72%
    04:00 +12°C° 0 mm 3 mps 749 mmHg 73%
    05:00 +12°C° 0 mm 4 mps 750 mmHg 71%
    06:00 +13°C° 0 mm 4 mps 750 mmHg 69%
    07:00 +13°C° 0 mm 4 mps 750 mmHg 67%
    08:00 +15°C° 0 mm 5 mps 750 mmHg 59%
    09:00 +16°C° 0 mm 5 mps 750 mmHg 51%
    10:00 +19°C° 0 mm 5 mps 750 mmHg 44%
    11:00 +20°C° 0 mm 6 mps 750 mmHg 41%
    12:00 +21°C° 0 mm 6 mps 750 mmHg 38%
    13:00 +22°C° 0 mm 6 mps 750 mmHg 35%
    14:00 +22°C° 0 mm 5 mps 750 mmHg 34%
    15:00 +22°C° 0 mm 5 mps 750 mmHg 34%
    16:00 +22°C° 0 mm 5 mps 750 mmHg 33%
    17:00 +22°C° 0 mm 5 mps 750 mmHg 37%
    18:00 +21°C° 0 mm 4 mps 750 mmHg 41%
    19:00 +20°C° 0 mm 3 mps 750 mmHg 44%
    20:00 +19°C° 0 mm 3 mps 750 mmHg 48%
    21:00 +18°C° 0 mm 3 mps 750 mmHg 52%
    22:00 +16°C° 0 mm 3 mps 751 mmHg 55%
    23:00 +16°C° 0 mm 3 mps 751 mmHg 59%

    21 August, Tuesday

    Time Temperature Precipitation Wind Pressure Humidity
    00:00 +15°C° 0 mm 2 mps 751 mmHg 62%
    01:00 +15°C° 0 mm 2 mps 751 mmHg 65%
    02:00 +14°C° 0 mm 2 mps 751 mmHg 67%
    03:00 +14°C° 0 mm 2 mps 751 mmHg 69%
    04:00 +13°C° 0 mm 2 mps 751 mmHg 71%
    05:00 +14°C° 0 mm 2 mps 751 mmHg 69%
    06:00 +14°C° 0 mm 2 mps 751 mmHg 67%
    07:00 +14°C° 0 mm 3 mps 752 mmHg 66%
    08:00 +17°C° 0 mm 3 mps 752 mmHg 58%
    09:00 +19°C° 0 mm 3 mps 752 mmHg 51%
    10:00 +20°C° 0 mm 3 mps 752 mmHg 44%
    11:00 +21°C° 0 mm 3 mps 752 mmHg 41%
    12:00 +24°C° 0 mm 3 mps 752 mmHg 38%
    13:00 +25°C° 0 mm 3 mps 751 mmHg 35%
    14:00 +25°C° 0 mm 3 mps 751 mmHg 34%
    15:00 +26°C° 0 mm 4 mps 751 mmHg 33%
    16:00 +26°C° 0 mm 4 mps 751 mmHg 32%
    17:00 +25°C° 0 mm 3 mps 751 mmHg 36%
    18:00 +25°C° 0 mm 2 mps 751 mmHg 39%
    19:00 +24°C° 0 mm 2 mps 751 mmHg 42%
    20:00 +23°C° 0 mm 1 mps 751 mmHg 44%
    21:00 +22°C° 0 mm 1 mps 751 mmHg 46%
    22:00 +21°C° 0 mm 1 mps 751 mmHg 48%
    23:00 +21°C° 0 mm 1 mps 751 mmHg 48%

    22 August, Wednesday

    Time Temperature Precipitation Wind Pressure Humidity
    00:00 +20°C° 0 mm 1 mps 751 mmHg 47%
    01:00 +19°C° 0 mm 2 mps 751 mmHg 47%
    02:00 +19°C° 0 mm 2 mps 751 mmHg 47%
    03:00 +19°C° 0 mm 2 mps 751 mmHg 47%
    04:00 +19°C° 0 mm 3 mps 751 mmHg 47%
    05:00 +19°C° 0 mm 3 mps 751 mmHg 46%
    06:00 +20°C° 0 mm 3 mps 751 mmHg 46%
    07:00 +20°C° 0 mm 3 mps 751 mmHg 45%
    08:00 +22°C° 0 mm 4 mps 751 mmHg 40%
    09:00 +26°C° 0 mm 4 mps 751 mmHg 36%
    10:00 +28°C° 0 mm 5 mps 751 mmHg 31%
    11:00 +28°C° 0 mm 5 mps 751 mmHg 29%
    12:00 +29°C° 0 mm 5 mps 750 mmHg 27%
    13:00 +30°C° 0 mm 5 mps 750 mmHg 25%
    14:00 +30°C° 0 mm 6 mps 750 mmHg 25%
    15:00 +32°C° 0 mm 6 mps 749 mmHg 24%
    16:00 +32°C° 0 mm 6 mps 749 mmHg 23%
    17:00 +30°C° 0 mm 5 mps 749 mmHg 26%
    18:00 +28°C° 0 mm 4 mps 749 mmHg 29%
    19:00 +27°C° 0 mm 3 mps 749 mmHg 32%
    20:00 +26°C° 0 mm 3 mps 749 mmHg 33%
    21:00 +25°C° 0 mm 3 mps 749 mmHg 33%
    22:00 +24°C° 0 mm 3 mps 749 mmHg 34%
    23:00 +24°C° 0 mm 3 mps 748 mmHg 35%
    Show more